Location: G�migny
(47.9646°N, 1.6950°E)
Time: 22:29:54
(UTC+00:00)

STARLINK-78 - Pass Details

Date: 23 October 2019
Orbit: 549 x 551 km, 53.0° (Epoch: 20 November)

Event Time Altitude Azimuth Distance (km) Brightness Sun altitude
Rises 19:19:17 0° 296° (WNW) 2,721 8.4 -25.5°
Reaches altitude 10° 19:21:31 10° 298° (WNW) 1,826 7.2 -25.8°
Enters shadow 19:24:36 47° 315° (NW) 736 4.5 -26.3°
